Regional Weather Roundup
Issued by NWS Newport/Morehead, NC

Current Version | Previous Version | Text Only | Print | Product List | Glossary On
Versions: 1 2 3 4 5 6 7 8 9 10 11 12 13 14 15 16 17 18 19 20 21 22 23 24 25 26 27 28 29 30 31 32 33 34 35 36 37 38 39 40 41 42 43 44 45 46 47 48 49 50
000 ASUS42 KMHX 021613 RWRMHX WEATHER ROUNDUP FOR EASTERN NORTH CAROLINA NATIONAL WEATHER SERVICE NEWPORT/MOREHEAD CITY NC 1200 PM EDT SUN AUG 02 2015 NOTE: "FAIR" INDICATES FEW OR NO CLOUDS BELOW 12,000 FEET WITH NO SIGNIFICANT WEATHER AND/OR OBSTRUCTIONS TO VISIBILITY NCZ015>017-031-032-045>047-102-103-021700- NORTH COAST CITY SKY/WX TMP DP RH WIND PRES REMARKS EDENTON N/A 88 66 48 W3 29.94S ELIZABETH CITY SUNNY 89 69 51 S5 29.94R KITTY HAWK SUNNY 92 68 45 E6 29.94R MANTEO SUNNY 87 67 50 SW5 29.95R $$ NCZ045>047-081-094-103-104-021700- CENTRAL COAST CITY SKY/WX TMP DP RH WIND PRES REMARKS FRISCO SUNNY 85 73 67 S7 29.95S SWANQUARTER N/A 90 N/A N/A S9 29.91S $$ NCZ095-097-098-100-101-021700- SOUTHERN COAST CITY SKY/WX TMP DP RH WIND PRES REMARKS BEAUFORT SUNNY 85 78 80 S7 29.95S CEDAR ISLAND N/A 84 N/A N/A NE2 30.00S JACKSONVILLE SUNNY 90 72 55 VRB6 29.94S PINEY ISLAND SUNNY N/A N/A N/A E7 29.95S WILMINGTON SUNNY 91 72 53 CALM 29.95R $$ NCZ011>013-027>030-043-044-078>080-089-090>093-098-021700- COASTAL PLAIN CITY SKY/WX TMP DP RH WIND PRES REMARKS AHOSKIE MOSUNNY 82 66 58 CALM 29.96S CLINTON SUNNY 90 63 40 NE5 29.97S ELIZABETHTOWN SUNNY 90 60 35 NE5 29.96S GOLDSBORO SUNNY 89 63 40 NW7 29.94S GREENVILLE SUNNY 90 66 45 W3 29.97S HAVELOCK MOSUNNY 90 74 59 NE5 29.95S KENANSVILLE SUNNY 88 59 37 CALM 29.97S KINSTON SUNNY 88 63 42 NE7 29.96S NEW BERN SUNNY 91 71 51 VRB3 29.96R RICHLANDS SUNNY 90 70 51 W3 29.95S ROCKY MOUNT SUNNY 89 60 37 MISG 29.97R WASHINGTON SUNNY 88 68 51 CALM 29.95S WHITEVILLE SUNNY 88 69 54 E3 29.95S $$ AMZ130-135-150-152-154-156-158-170-250-252-270-ANZ085-086-088-633-658-670-021700- MARINE OBSERVATIONS STATION/POSITION TIME TEMP WIND PRES WAVE SWELL AIR SEA DIR/SP/G HT/PER HT/PER (UTC) (F) (DEG/KT/KT) (MB) (FT/S) (FT/S) CHESAPEAKE LIGHT 1600 80 30/ 6/ 7 1014.5 64 E VA BEACH 1550 81 83 130/ 6/ 8 1013.7 3/ 7 3/ 7 DUCK 1500 80 77 60/ 4/ 5 1012.8 2 E DUCK 1511 81 N/A 2/ 9 OREGON INLET 1500 83 82 60/ 5/ 7 1013.9 13E OREGON INLT 1600 84 N/A 2/ 7 2/11 HATTERAS CG 1500 83 81 300/ 4/ 5 1014.0 DIAMOND BUOY 1550 83 87 160/ 4/ 6 1014.5 3/ 7 3/ 7 CAPE LOOKOUT 1600 82 160/ 6/ 7 1014.0 BEAUFORT LAB 1500 83 81 180/ 6/ 9 1013.5 30 SE NEW RVR IN NOT AVBL 27 SE WRIGHTSVLE 1500 79 83 290/ 2/ 4 N/A 5 SE WRIGHTSVLE 1508 83 83 90/ 2/ 4 1014.3 225 S CAPE HAT 1550 83 81 220/ 14/ 17 1016.5 7/ 8 5/ 8 41 SE CHARLESTON 1550 76 83 350/ 2/ 4 1014.5 4/ 7 3/ 7 $$

USA.gov is the U.S. government's official web portal to all federal, state and local government web resources and services.